Location: Malanoce
(44.2500°N, 7.4667°E)
Time: 13:44:50
(UTC+00:00)

SKYMED 2 - Pass Details

Date: 17 November 2025
Orbit: 621 x 623 km, 97.9° (Epoch: 06 December)

Event Time Altitude Azimuth Distance (km) Brightness Sun altitude
Exits shadow 17:44:58 - 12° (NNE) 2,354 6.3 -18.5°
Reaches altitude 10° 17:45:50 10° 11° (NNE) 2,001 6.0 -18.6°
Maximum altitude 17:50:11 83° 285° (WNW) 633 3.6 -19.4°
Drops below altitude 10° 17:54:30 10° 197° (SSW) 1,984 6.4 -20.2°
Sets 17:56:41 0° 197° (SSW) 2,886 7.3 -20.5°
